Caro, MI

8:22 AM EDT on May 26, 2017 (GMT -0400)
Caro

Weather History for KCFS - November, 2012

Change the Weather History Date:

Tuesday, November 20, 2012

  Actual Average (KMBS) Record (KMBS)
Temperature  
Mean Temperature 42 °F -  
Max Temperature 53 °F 42 °F 55 °F (2003)
Min Temperature 32 °F 29 °F 13 °F (2014)
Degree Days  
Heating Degree Days 22    
Moisture  
Dew Point 36 °F    
Average Humidity 84    
Maximum Humidity 98    
Minimum Humidity 49    
Precipitation  
Precipitation 0.00 in - - ()
Sea Level Pressure  
Sea Level Pressure 30.12 in    
Wind  
Wind Speed 0 mph (North)    
Max Wind Speed 0 mph    
Max Gust Speed -    
Visibility 6 miles    
Events Rain    
Averages and records for this station are not official NWS values.
T = Trace of Precipitation, MM = Missing Value Source: NWS Daily Summary

Daily Weather History Graph

Daily Weather History Graph

Search for Another Location

Airport or City:

Trip Planner

Search our weather history database for the weather conditions in past years. The results will help you decide how hot, cold, wet, or windy it might be!

Date:

Astronomy

Nov. 20, 2012 Rise Set
Actual Time 7:34 AM EST 5:04 PM EST
Civil Twilight 7:03 AM EST 5:35 PM EST
Nautical Twilight 6:28 AM EST 6:10 PM EST
Astronomical Twilight 5:54 AM EST 6:44 PM EST
Moon 1:01 PM EST (11/20) No Moon Set
Length of Visible Light 10h 32m
Length of Day
9h 30m
Waxing Crescent, 51% of the Moon is Illuminated
Nov 20
Waxing Crescent
Nov 28
Full
Dec 6
Last Quarter
Dec 13
New
Dec 20
First Quarter

Hourly Weather History & Observations

Time (EST) Temp. Dew Point Humidity Pressure Visibility Wind Dir Wind Speed Gust Speed Precip Events Conditions
12:15 AM 38.3 °F 34.3 °F 86% 30.17 in 10.0 mi Calm Calm - N/A   Clear
12:34 AM 36.9 °F 33.6 °F 88% 30.17 in 10.0 mi Calm Calm - N/A   Clear
12:55 AM 36.1 °F 32.9 °F 88% 30.16 in 10.0 mi Calm Calm - N/A   Clear
1:14 AM 34.7 °F 32.0 °F 90% 30.16 in 10.0 mi Calm Calm - N/A   Clear
1:35 AM 33.4 °F 31.6 °F 93% 30.15 in 7.0 mi Calm Calm - N/A   Clear
1:55 AM 33.1 °F 31.6 °F 94% 30.15 in 7.0 mi Calm Calm - N/A   Clear
2:14 AM 32.4 °F 31.1 °F 95% 30.15 in 7.0 mi Calm Calm - N/A   Clear
2:35 AM 32.9 °F 31.8 °F 96% 30.15 in 5.0 mi Calm Calm - N/A   Clear
2:54 AM 32.9 °F 31.8 °F 96% 30.14 in 7.0 mi Calm Calm - N/A   Clear
3:14 AM 32.2 °F 31.3 °F 96% 30.14 in 5.0 mi Calm Calm - N/A   Clear
3:35 AM 32.0 °F 31.3 °F 97% 30.14 in 5.0 mi Calm Calm - N/A   Clear
3:54 AM 32.0 °F 30.7 °F 95% 30.13 in 7.0 mi Calm Calm - N/A   Scattered Clouds
4:14 AM 32.0 °F 31.5 °F 98% 30.13 in 5.0 mi Calm Calm - N/A   Scattered Clouds
4:35 AM 32.0 °F 31.5 °F 98% 30.12 in 5.0 mi Calm Calm - N/A   Mostly Cloudy
4:54 AM 32.0 °F 31.1 °F 96% 30.13 in 5.0 mi Calm Calm - N/A   Scattered Clouds
5:15 AM 32.2 °F 31.6 °F 98% 30.13 in 7.0 mi Calm Calm - N/A   Clear
5:34 AM 32.2 °F 31.6 °F 98% 30.13 in 5.0 mi Calm Calm - N/A   Clear
5:55 AM 32.5 °F 32.0 °F 98% 30.13 in 5.0 mi Calm Calm - N/A   Scattered Clouds
6:15 AM 32.5 °F 32.0 °F 98% 30.12 in 5.0 mi Calm Calm - N/A   Scattered Clouds
6:34 AM 33.1 °F 32.0 °F 96% 30.12 in 5.0 mi Calm Calm - N/A   Clear
6:55 AM 33.1 °F 32.0 °F 96% 30.12 in 5.0 mi Calm Calm - N/A   Clear
7:14 AM 33.6 °F 32.5 °F 96% 30.12 in 5.0 mi Calm Calm - N/A   Scattered Clouds
7:33 AM 33.4 °F 32.4 °F 96% 30.12 in 7.0 mi Calm Calm - N/A   Mostly Cloudy
7:54 AM 33.8 °F 32.5 °F 95% 30.12 in 3.0 mi Calm Calm - N/A   Mostly Cloudy
8:15 AM 34.7 °F 33.4 °F 95% 30.12 in 3.0 mi Calm Calm - N/A   Mostly Cloudy
8:34 AM 35.4 °F 34.3 °F 96% 30.12 in 4.0 mi Calm Calm - N/A   Scattered Clouds
8:54 AM 37.9 °F 36.7 °F 95% 30.13 in 2.5 mi Calm Calm - N/A   Mostly Cloudy
9:15 AM 39.7 °F 38.3 °F 95% 30.13 in 4.0 mi Calm Calm - N/A   Overcast
9:34 AM 40.3 °F 38.7 °F 94% 30.13 in 4.0 mi Calm Calm - N/A   Overcast
9:55 AM 41.5 °F 39.0 °F 91% 30.12 in 5.0 mi Calm Calm - N/A   Mostly Cloudy
10:15 AM 43.7 °F 39.2 °F 84% 30.12 in 5.0 mi Calm Calm - N/A   Haze
10:34 AM 44.2 °F 39.4 °F 83% 30.12 in 7.0 mi Calm Calm - N/A   Overcast
10:55 AM 45.7 °F 37.8 °F 74% 30.13 in 7.0 mi Calm Calm - N/A   Overcast
11:15 AM 46.6 °F 38.3 °F 73% 30.13 in 7.0 mi Calm Calm - N/A   Overcast
11:34 AM 47.7 °F 37.8 °F 69% 30.12 in 10.0 mi Calm Calm - N/A   Overcast
11:55 AM 48.4 °F 37.2 °F 65% 30.11 in 10.0 mi Calm Calm - N/A   Overcast
12:15 PM 50.4 °F 36.9 °F 60% 30.11 in 10.0 mi Calm Calm - N/A   Overcast
12:34 PM 50.4 °F 36.5 °F 59% 30.10 in 10.0 mi Calm Calm - N/A   Overcast
12:55 PM 50.5 °F 35.4 °F 56% 30.09 in 10.0 mi Calm Calm - N/A   Overcast
1:14 PM 50.9 °F 35.4 °F 55% 30.09 in 10.0 mi Calm Calm - N/A   Overcast
1:55 PM 52.3 °F 34.9 °F 51% 30.08 in 10.0 mi Calm Calm - N/A   Overcast
2:14 PM 52.7 °F 34.7 °F 50% 30.08 in 10.0 mi Calm Calm - N/A   Overcast
2:35 PM 52.9 °F 34.5 °F 50% 30.07 in 10.0 mi Calm Calm - N/A   Overcast
2:54 PM 53.2 °F 34.7 °F 49% 30.07 in 10.0 mi Calm Calm - N/A   Overcast
3:15 PM 52.2 °F 36.7 °F 56% 30.08 in 10.0 mi Calm Calm - N/A   Overcast
3:34 PM 51.1 °F 38.3 °F 62% 30.09 in 7.0 mi Calm Calm - N/A   Overcast
3:54 PM 50.2 °F 39.2 °F 66% 30.09 in 10.0 mi Calm Calm - N/A   Overcast
4:15 PM 49.1 °F 39.4 °F 69% 30.10 in 7.0 mi Calm Calm - N/A   Overcast
4:34 PM 48.7 °F 39.9 °F 72% 30.10 in 5.0 mi Calm Calm - N/A Rain Rain
4:55 PM 48.0 °F 40.5 °F 75% 30.11 in 7.0 mi Calm Calm - N/A   Light Drizzle
5:15 PM 46.8 °F 40.1 °F 78% 30.11 in 7.0 mi Calm Calm - N/A   Light Drizzle
5:34 PM 46.0 °F 40.1 °F 80% 30.12 in 7.0 mi Calm Calm - N/A Rain Light Rain
5:55 PM 45.3 °F 40.1 °F 82% 30.12 in 7.0 mi Calm Calm - N/A   Light Drizzle
6:14 PM 46.8 °F 40.6 °F 79% 30.12 in 7.0 mi Calm Calm - N/A   Overcast
6:35 PM 44.8 °F 41.0 °F 87% 30.12 in 7.0 mi Calm Calm - N/A   Overcast
6:55 PM 45.1 °F 41.5 °F 87% 30.13 in 7.0 mi Calm Calm - N/A   Overcast
7:14 PM 44.6 °F 41.2 °F 88% 30.13 in 7.0 mi Calm Calm - N/A   Overcast
7:35 PM 44.6 °F 41.9 °F 90% 30.13 in 7.0 mi Calm Calm - N/A   Overcast
7:55 PM 45.9 °F 41.9 °F 86% 30.13 in 7.0 mi Calm Calm - N/A   Overcast
8:14 PM 44.6 °F 41.2 °F 88% 30.14 in 7.0 mi Calm Calm - N/A   Overcast
8:35 PM 44.4 °F 41.2 °F 88% 30.13 in 7.0 mi Calm Calm - N/A   Overcast
8:54 PM 44.6 °F 41.5 °F 89% 30.14 in 7.0 mi Calm Calm - N/A   Overcast
9:14 PM 43.3 °F 41.0 °F 91% 30.14 in 5.0 mi Calm Calm - N/A   Mostly Cloudy
9:35 PM 40.6 °F 38.7 °F 93% 30.14 in 5.0 mi Calm Calm - N/A   Clear
9:54 PM 39.2 °F 37.2 °F 93% 30.14 in 4.0 mi Calm Calm - N/A   Clear
10:14 PM 38.5 °F 37.0 °F 95% 30.14 in 3.0 mi Calm Calm - N/A   Mist
10:35 PM 37.8 °F 36.5 °F 95% 30.15 in 4.0 mi Calm Calm - N/A   Scattered Clouds
10:54 PM 38.7 °F 37.4 °F 95% 30.15 in 4.0 mi Calm Calm - N/A   Mostly Cloudy
11:15 PM 38.8 °F 37.6 °F 95% 30.15 in 4.0 mi Calm Calm - N/A   Overcast
11:35 PM 37.6 °F 36.3 °F 95% 30.15 in 2.5 mi Calm Calm - N/A   Mist
11:54 PM 36.9 °F 35.6 °F 95% 30.15 in 2.5 mi Calm Calm - N/A   Mist